THORAD AGENA D DEB, 4948

Orbit data source: Space-Track

THORAD AGENA D DEB, 4948 is space debris in SSO originally from a launch on Wed, 08 Apr 1970 UTC launched from the Air Force Western Test Range (AFWTR). Debris objects in space refer to the collection of defunct objects orbiting the Earth. Examples of debris include non-operational satellites, rocket bodies, and fragments generated from explosions, collisions, or faulty payload assembly.

Loading next visibility...
Identifier
4948, 1970-025GJ
Orbit
SSO
Country
Flag of USUS
Related business
Manufacturer
Unknown
Mission
Spacecraft
Bus & Motor
Unknown
Mass
Unknown
Launch date (UTC)
1970-04-08 (56 years ago)
Launch vehicle
Unknown
Launch site
Air Force Western Test Range (AFWTR)
Object type
Payload
Rocket body
Debris
Shape & HBR
Unknown shape, 0.1 m
Radar Cross Section
Small (<0.1 m²)

Expand to show TLE details & history
Last TLE update: 6 hours ago

TLE from 6 hours ago
0 THORAD AGENA D DEB
1  4948U 70025GJ  26132.85017538  .00000806  00000-0  11262-2 0  9998
2  4948  99.4070 342.1063 0204105 230.4178 147.5240 13.52422620733634
Epoch: 2026-05-12T20:24Z
TLE epoch observation values (Epoch: 2026-05-12T20:24:15.152Z)
Latitude
18.90071°
Longitude
162.18908°
Altitude
1,194.695 km
Speed
7.195 km/s
True Right ascension
22h 35m 29s
True Declination
18° 48' 06"
Sunlit
Object was in daylight at epoch
Visualization orbit readout
Latitude
Unknown
Longitude
Unknown
Altitude
Unknown
Speed
Unknown
Apparent Right ascension
Unknown
Apparent Declination
Unknown
Sunlit
N/A
Visualization observer readout
Local Sidereal Time
11:03:08
Azimuth
Unknown
Elevation
Unknown
Doppler factor
Unknown
Orbital elements
Apogee altitude
1,212.469 km
Perigee altitude
908.811 km
Semi-major axis
7,438.777 km
Eccentricity
0.02041
Inclination
99.407°
RAAN
342.1063°
Arg. of periapsis
230.4178°
True anomaly
148.75327°
Mean anomaly
147.524°
Eccentric anomaly
148.14126°
Mean motion
3.38291 °/min
Orbital period
106.42 mins
BSTAR
0.0011262

Documentation

Showing up to 5 results
|